FW9148 Weather Reports


time (UTC)temp
F
wind
direction
speed
knots
gust
knots
rain 1hr
in
rain 24hr
in
rain mn
in
humidity
%
barometer
mb
20260507203108 62 265 0.0 1.7 0.00 0.21 0.00 40 1005.9
20260507201605 63 280 0.9 2.6 0.00 0.21 0.00 37 1005.9
20260507200100 63 0 0.9 3.5 0.00 0.21 0.00 43 1006.0
20260507194556 63 291 0.9 2.6 0.00 0.22 0.00 37 1006.1
20260507193110 64 239 0.0 2.6 0.00 0.22 0.00 41 1006.1
20260507191554 63 252 0.9 5.2 0.00 0.22 0.00 40 1006.1
20260507190054 63 304 0.9 3.5 0.00 0.22 0.00 36 1006.3
20260507184551 64 288 0.9 2.6 0.00 0.29 0.00 40 1006.6
20260507183105 63 304 0.9 3.5 0.00 0.29 0.00 35 1006.8
20260507181552 64 285 0.9 2.6 0.00 0.29 0.00 41 1007.1
20260507180055 63 276 0.9 3.5 0.00 0.29 0.00 37 1007.0
20260507174604 62 289 2.6 7.0 0.00 0.32 0.00 38 1007.1
20260507173102 63 284 1.7 5.2 0.00 0.32 0.00 36 1006.8
20260507171611 63 279 0.9 4.3 0.00 0.32 0.00 35 1006.8
20260507170058 64 298 0.9 7.0 0.00 0.32 0.00 42 1007.1
20260507164611 63 281 1.7 3.5 0.00 0.32 0.00 38 1007.1
20260507163059 63 272 0.9 3.5 0.00 0.32 0.00 41 1007.2
20260507161612 62 253 0.9 4.3 0.00 0.32 0.00 43 1007.4
20260507154554 62 245 0.9 3.5 0.00 0.32 0.00 49 1007.7
20260507153055 61 287 0.9 4.3 0.00 0.32 0.00 56 1007.8
20260507151554 60 276 0.9 3.5 0.00 0.32 0.00 59 1008.0
20260507150104 60 256 0.0 1.7 0.00 0.32 0.00 60 1008.0
20260507144556 59 273 0.9 1.7 0.00 0.32 0.00 64 1008.1
20260507143103 58 271 0.0 1.7 0.00 0.32 0.00 64 1008.0
20260507141558 57 285 0.0 2.6 0.00 0.32 0.00 67 1008.1
20260507140054 57 289 0.0 3.5 0.00 0.32 0.00 65 1007.8
20260507134558 58 293 0.0 3.5 0.00 0.32 0.00 65 1007.9
20260507133058 59 0 0.0 2.6 0.00 0.32 0.00 66 1007.9
20260507131613 58 233 0.0 2.6 0.00 0.32 0.00 67 1008.0
20260507130057 58 314 0.0 3.5 0.00 0.32 0.00 70 1008.1
20260507124557 56 0 0.0 1.7 0.00 0.32 0.00 71 1008.2
20260507123056 56 127 0.0 0.9 0.00 0.32 0.00 76 1008.1
20260507121608 54 259 0.0 5.2 0.00 0.32 0.00 78 1008.3
20260507120059 53 0 0.0 1.7 0.00 0.32 0.00 82 1008.3
20260507114600 50 0 0.0 0.9 0.00 0.32 0.00 88 1008.3
20260507113057 48 0 0.0 0.9 0.00 0.32 0.00 92 1008.3
20260507111555 48 59 0.0 0.0 0.00 0.32 0.00 91 1008.1
20260507110106 47 0 0.0 0.9 0.00 0.32 0.00 93 1008.1
20260507104554 46 0 0.0 1.7 0.00 0.32 0.00 94 1007.9
20260507103058 46 0 0.0 0.0 0.00 0.32 0.00 94 1007.5
20260507101555 46 0 0.0 0.0 0.00 0.32 0.00 93 1007.5
20260507100054 46 0 0.0 4.3 0.00 0.32 0.00 94 1007.6
20260507094609 46 0 0.0 0.9 0.00 0.32 0.00 94 1007.5
20260507093058 46 0 0.0 0.9 0.00 0.32 0.00 95 1007.7
20260507091626 46 0 0.0 0.9 0.00 0.32 0.00 95 1007.9
20260507090105 46 0 0.0 0.9 0.00 0.32 0.00 95 1007.9
20260507084557 46 0 0.0 0.9 0.00 0.32 0.00 95 1007.7
20260507083057 46 0 0.0 0.0 0.00 0.32 0.00 94 1007.6
20260507081555 47 0 0.0 0.9 0.00 0.32 0.00 93 1007.4
20260507080058 47 0 0.0 1.7 0.00 0.32 0.00 92 1007.5
20260507074557 48 0 0.0 3.5 0.00 0.32 0.00 92 1007.3
20260507073100 48 0 0.0 0.9 0.00 0.32 0.00 94 1007.8
20260507071559 49 0 0.0 0.0 0.00 0.32 0.00 95 1007.2
20260507070108 49 162 0.0 1.7 0.00 0.32 0.00 95 1006.9
20260507064614 49 0 0.0 0.9 0.00 0.32 0.00 96 1007.0
20260507063058 49 0 0.0 0.0 0.00 0.32 0.00 96 1006.9
20260507061552 50 0 0.0 0.0 0.00 0.32 0.00 96 1006.7
20260507060105 50 0 0.0 0.0 0.00 0.32 0.00 96 1007.0
20260507054556 51 0 0.0 0.0 0.00 0.32 0.00 96 1007.0
20260507053054 51 0 0.0 0.9 0.00 0.32 0.00 96 1007.6
20260507051556 51 0 0.0 0.0 0.00 0.32 0.00 96 1007.5
20260507050054 52 0 0.0 0.0 0.00 0.32 0.00 96 1007.5
20260507044555 52 0 0.0 0.9 0.00 0.32 0.00 96 1007.3
20260507043053 52 274 0.0 0.9 0.02 0.32 0.00 96 1007.3
20260507041551 53 0 0.0 0.9 0.02 0.32 0.00 96 1007.3
20260507040052 53 0 0.0 0.0 0.02 0.32 0.00 96 1007.4
20260507034559 54 0 0.0 0.9 0.02 0.32 0.32 96 1007.3
20260507033057 54 0 0.0 0.9 0.00 0.30 0.30 96 1007.0
20260507031552 55 284 0.0 3.5 0.00 0.30 0.30 96 1006.8
20260507030054 57 0 0.0 0.9 0.01 0.30 0.30 97 1006.1
20260507024558 58 0 0.0 0.9 0.01 0.30 0.30 98 1006.2
20260507023051 58 0 0.0 0.9 0.01 0.30 0.30 98 1006.0
20260507021558 58 0 0.0 0.9 0.01 0.30 0.30 98 1006.1
20260507020054 58 0 0.0 0.0 0.00 0.29 0.29 98 1005.8
20260507014553 58 0 0.0 0.9 0.00 0.29 0.29 98 1006.0
20260507013052 58 0 0.0 0.9 0.00 0.29 0.29 98 1005.8
20260507011554 58 0 0.0 0.9 0.00 0.29 0.29 98 1005.9
20260507010109 58 0 0.0 0.9 0.00 0.29 0.29 98 1005.8
20260507004554 58 0 0.0 0.0 0.00 0.29 0.29 97 1005.9
20260507003052 58 0 0.0 0.9 0.00 0.29 0.29 97 1005.8
20260507001557 58 0 0.0 0.9 0.00 0.29 0.29 97 1005.6
20260507000056 58 0 0.0 1.7 0.00 0.29 0.29 97 1005.6
20260506234602 58 0 0.0 1.7 0.03 0.29 0.29 97 1005.6
20260506233103 58 0 0.0 0.9 0.05 0.29 0.29 97 1005.5
20260506231554 58 0 0.0 0.0 0.06 0.29 0.29 97 1005.3
20260506230054 58 0 0.0 4.3 0.06 0.29 0.29 97 1005.4
20260506224556 58 202 0.0 1.7 0.04 0.26 0.26 97 1005.6
20260506223058 59 0 0.0 1.7 0.04 0.24 0.24 96 1005.7
20260506221553 59 0 0.0 6.1 0.04 0.23 0.23 96 1005.8
20260506220053 59 122 0.0 2.6 0.05 0.23 0.23 96 1005.9
20260506214556 59 0 0.9 4.3 0.05 0.22 0.22 96 1005.8
20260506213057 59 200 0.0 1.7 0.05 0.20 0.20 96 1005.8
20260506211557 59 0 0.0 3.5 0.06 0.19 0.19 96 1005.8
20260506210053 60 197 0.0 1.7 0.07 0.18 0.18 96 1006.2
20260506204554 60 0 0.0 3.5 0.07 0.17 0.17 95 1006.4